Regional Weather Roundup
Issued by NWS

Home | Current Version | Previous Version | Text Only | Print | Product List | Glossary Off
Versions: 1 2 3 4 5 6 7 8 9 10 11 12 13 14 15 16 17 18 19 20 21 22 23 24 25 26 27 28 29 30 31 32 33 34 35 36 37 38 39 40 41 42 43 44 45 46 47 48 49 50

000
ASUS43 KFSD 101710
RWRSD

SOUTH DAKOTA HOURLY REGIONAL WEATHER ROUNDUP
NATIONAL WEATHER SERVICE ABERDEEN SD
1200 PM CDT THU JUL 10 2014

...SATELLITE DATA IS USED TO AUGMENT CLOUD COVER ABOVE 12000 FEET...

NOTE: "FAIR" INDICATES FEW OR NO CLOUDS BELOW 12,000 FEET WITH NO
SIGNIFICANT WEATHER AND/OR OBSTRUCTION TO VISIBILITY.

SDZ001>005-009-010-012>017-101800-
...NORTHWEST AND NORTH CENTRAL SOUTH DAKOTA...

CITY           SKY/WX    TMP DP  RH WIND       PRES   REMARKS
BUFFALO          N/A     75  63  66 S10       29.80F
FAITH            N/A     71  62  73 NE6       29.89F
MOBRIDGE       CLOUDY    69  63  81 S8        29.88R
$$

SDZ012>016-024>037-041>051-057-063-101800-
...SOUTHWEST AND SOUTH CENTRAL SOUTH DAKOTA...

CITY           SKY/WX    TMP DP  RH WIND       PRES   REMARKS
RAPID CITY     SUNNY     77  64  64 CALM      29.90R
ELLSWORTH AFB  PTSUNNY   76  63  63 NE13      29.90R
CUSTER         SUNNY     78  57  48 VRB3      30.02S
PHILIP         PTSUNNY   77  64  64 MISG      29.86F
PINE RIDGE     SUNNY     79  63  57 S14G20    29.89S
PIERRE         CLOUDY    73  64  73 S13       29.83F
WINNER         NOT AVBL
$$

SDZ004>011-016>023-039-040-101800-
...NORTHEAST SOUTH DAKOTA...

CITY           SKY/WX    TMP DP  RH WIND       PRES   REMARKS
ABERDEEN       CLOUDY    76  62  62 S15       29.90F
WATERTOWN      MOSUNNY   77  61  57 S20G25    29.94F
BROOKINGS      NOT AVBL
SISSETON         N/A     78  63  59 S13       29.92F
$$

SDZ017-020-022-023-036>040-048>070-101800-
...SOUTHEAST SOUTH DAKOTA...

CITY           SKY/WX    TMP DP  RH WIND       PRES   REMARKS
SIOUX FALLS    PTSUNNY   81  61  50 S17G23    29.97F
YANKTON        SUNNY     81  66  61 SE17      29.96F
MITCHELL       MOSUNNY   82  65  56 S18G28    29.91F
HURON          MOSUNNY   80  63  55 S12       29.89F
CHAMBERLAIN    MOSUNNY   78  65  63 S15       29.89S
$$



USA.gov is the U.S. government's official web portal to all federal, state and local government web resources and services.